Himawari-5

operational
NORAD ID: 23522 Int'l Des: 1995-011 Owner: NASDA Country: J
HEOCIRCULAR

About Himawari-5

Description loading...

Live Position

Loading 3D Globe...

Upcoming Passes

Altitude History

Altitude vs Time

uPlot chart will show altitude changes over time

Two-Line Element Set

1 23522U 95011B 26018.82468104 -.00000318 00000-0 00000-0 0 9993
2 23522 14.2381 5.5215 0005704 174.9926 17.5430 0.99408691112119
Epoch: Jan 18, 2026 • Age: 16 hours

Current Status

Altitude 36037.7 km
Velocity 3.07 km/s
Sub-Earth Point 12.81°N, 140.16°E
Launch Date Mar 18, 1995
Age 30.8 years
Type weather

Technical Details

Classification Payload
Mass 345.00 kg
Dry Mass 200.00 kg
Total Mass 746.00 kg
Length 3.50 m
Diameter 2.20 m
Span 3.50 m
Shape Cyl
Manufacturer NEC/HSES
Bus Type HS-378
Phase Status In Orbit
Owner/State NASDA/J

Large Constellations

Loading constellations...